Time,TemperatureF,DewpointF,PressureIn,WindDirection,WindDirectionDegrees,WindSpeedMPH,WindSpeedGustMPH,Humidity,HourlyPrecipIn,Conditions,Clouds,dailyrainin,SoftwareType,DateUTC
2013-05-25 00:00:00,47.9,32.5,22.62,North,358,0.0,21.0,55,0.00,,,0.00,Wunderground v.1.15,2013-05-25 06:00:00,
2013-05-25 00:02:00,47.8,32.4,22.62,North,358,0.0,21.0,55,0.00,,,0.00,Wunderground v.1.15,2013-05-25 06:02:00,
2013-05-25 00:06:00,47.4,32.5,22.62,North,358,0.0,21.0,56,0.00,,,0.00,Wunderground v.1.15,2013-05-25 06:06:00,
2013-05-25 00:08:00,47.2,32.7,22.62,North,358,0.0,21.0,57,0.00,,,0.00,Wunderground v.1.15,2013-05-25 06:08:00,
2013-05-25 00:10:00,47.1,32.6,22.62,North,359,0.0,21.0,57,0.00,,,0.00,Wunderground v.1.15,2013-05-25 06:10:00,
2013-05-25 00:12:00,46.9,32.9,22.62,North,358,0.0,21.0,58,0.00,,,0.00,Wunderground v.1.15,2013-05-25 06:12:00,
2013-05-25 00:15:00,46.7,32.7,22.61,North,358,0.0,21.0,58,0.00,,,0.00,Wunderground v.1.15,2013-05-25 06:15:00,
2013-05-25 00:17:00,46.6,33.0,22.61,North,358,0.0,21.0,59,0.00,,,0.00,Wunderground v.1.15,2013-05-25 06:17:00,
2013-05-25 00:18:00,46.5,32.9,22.61,North,358,0.0,21.0,59,0.00,,,0.00,Wunderground v.1.15,2013-05-25 06:18:00,
2013-05-25 00:20:00,46.4,33.3,22.61,North,359,0.0,21.0,60,0.00,,,0.00,Wunderground v.1.15,2013-05-25 06:20:00,
2013-05-25 00:22:00,46.4,32.8,22.61,North,358,0.0,21.0,59,0.00,,,0.00,Wunderground v.1.15,2013-05-25 06:22:00,
2013-05-25 00:24:00,46.2,33.1,22.61,North,358,0.0,21.0,60,0.00,,,0.00,Wunderground v.1.15,2013-05-25 06:24:00,
2013-05-25 00:28:00,46.0,32.9,22.61,North,358,0.0,21.0,60,0.00,,,0.00,Wunderground v.1.15,2013-05-25 06:28:00,
2013-05-25 00:30:00,45.9,33.2,22.62,North,358,0.0,21.0,61,0.00,,,0.00,Wunderground v.1.15,2013-05-25 06:30:00,
2013-05-25 00:32:00,45.9,33.2,22.62,North,358,0.0,21.0,61,0.00,,,0.00,Wunderground v.1.15,2013-05-25 06:32:00,
2013-05-25 00:37:00,45.9,33.2,22.62,ENE,74,0.0,21.0,61,0.00,,,0.00,Wunderground v.1.15,2013-05-25 06:37:00,
2013-05-25 00:39:00,45.9,33.6,22.62,ENE,75,0.0,21.0,62,0.00,,,0.00,Wunderground v.1.15,2013-05-25 06:39:00,
2013-05-25 00:41:00,45.7,33.4,22.61,ENE,75,0.0,21.0,62,0.00,,,0.00,Wunderground v.1.15,2013-05-25 06:41:00,
2013-05-25 00:43:00,45.4,33.1,22.61,ENE,75,0.0,21.0,62,0.00,,,0.00,Wunderground v.1.15,2013-05-25 06:43:00,
2013-05-25 00:44:00,45.2,32.9,22.62,NNW,341,0.0,21.0,62,0.00,,,0.00,Wunderground v.1.15,2013-05-25 06:44:00,
2013-05-25 00:46:00,45.1,33.2,22.62,NNW,342,0.0,21.0,63,0.00,,,0.00,Wunderground v.1.15,2013-05-25 06:46:00,
2013-05-25 00:48:00,44.9,33.1,22.62,NNW,341,0.0,21.0,63,0.00,,,0.00,Wunderground v.1.15,2013-05-25 06:48:00,
2013-05-25 00:53:00,44.7,33.3,22.62,NNW,341,0.0,21.0,64,0.00,,,0.00,Wunderground v.1.15,2013-05-25 06:53:00,
2013-05-25 00:54:00,44.7,33.3,22.62,NNW,338,0.0,21.0,64,0.00,,,0.00,Wunderground v.1.15,2013-05-25 06:54:00,
2013-05-25 00:56:00,44.6,32.8,22.62,ENE,58,0.0,21.0,63,0.00,,,0.00,Wunderground v.1.15,2013-05-25 06:56:00,
2013-05-25 00:58:00,44.4,33.0,22.62,ENE,58,0.0,21.0,64,0.00,,,0.00,Wunderground v.1.15,2013-05-25 06:58:00,
2013-05-25 01:00:00,44.3,33.3,22.62,ENE,58,0.0,21.0,65,0.00,,,0.00,Wunderground v.1.15,2013-05-25 07:00:00,
2013-05-25 01:06:00,44.2,32.8,22.62,North,354,0.0,21.0,64,0.00,,,0.00,Wunderground v.1.15,2013-05-25 07:06:00,
2013-05-25 01:08:00,44.4,33.0,22.62,North,354,1.0,21.0,64,0.00,,,0.00,Wunderground v.1.15,2013-05-25 07:08:00,
2013-05-25 01:10:00,44.4,32.6,22.62,North,354,1.0,21.0,63,0.00,,,0.00,Wunderground v.1.15,2013-05-25 07:10:00,
2013-05-25 01:14:00,44.4,32.2,22.62,WNW,283,1.0,21.0,62,0.00,,,0.00,Wunderground v.1.15,2013-05-25 07:14:00,
2013-05-25 01:16:00,44.3,32.1,22.62,NNW,330,1.0,21.0,62,0.00,,,0.00,Wunderground v.1.15,2013-05-25 07:16:00,
2013-05-25 01:20:00,44.3,32.9,22.62,SW,235,1.0,21.0,64,0.00,,,0.00,Wunderground v.1.15,2013-05-25 07:20:00,
2013-05-25 01:23:00,44.0,32.6,22.62,ESE,110,1.0,21.0,64,0.00,,,0.00,Wunderground v.1.15,2013-05-25 07:23:00,
2013-05-25 01:29:00,43.5,32.5,22.61,ESE,108,1.0,21.0,65,0.00,,,0.00,Wunderground v.1.15,2013-05-25 07:29:00,
2013-05-25 01:31:00,43.4,32.4,22.61,ESE,109,1.0,21.0,65,0.00,,,0.00,Wunderground v.1.15,2013-05-25 07:31:00,
2013-05-25 01:34:00,43.2,32.6,22.61,ESE,109,0.0,21.0,66,0.00,,,0.00,Wunderground v.1.15,2013-05-25 07:34:00,
2013-05-25 01:36:00,43.1,32.9,22.61,East,79,0.0,21.0,67,0.00,,,0.00,Wunderground v.1.15,2013-05-25 07:36:00,
2013-05-25 01:40:00,43.0,33.2,22.61,North,9,1.0,21.0,68,0.00,,,0.00,Wunderground v.1.15,2013-05-25 07:40:00,
2013-05-25 01:42:00,43.0,32.8,22.61,North,358,1.0,21.0,67,0.00,,,0.00,Wunderground v.1.15,2013-05-25 07:42:00,
2013-05-25 01:44:00,43.0,33.2,22.61,North,359,1.0,21.0,68,0.00,,,0.00,Wunderground v.1.15,2013-05-25 07:44:00,
2013-05-25 01:49:00,42.9,32.7,22.61,North,358,1.0,21.0,67,0.00,,,0.00,Wunderground v.1.15,2013-05-25 07:49:00,
2013-05-25 01:51:00,42.8,32.6,22.61,North,358,1.0,21.0,67,0.00,,,0.00,Wunderground v.1.15,2013-05-25 07:51:00,
2013-05-25 01:54:00,42.6,32.8,22.61,North,358,0.0,21.0,68,0.00,,,0.00,Wunderground v.1.15,2013-05-25 07:54:00,
2013-05-25 01:56:00,42.6,32.8,22.61,NNW,328,1.0,21.0,68,0.00,,,0.00,Wunderground v.1.15,2013-05-25 07:56:00,
2013-05-25 01:58:00,42.6,32.8,22.61,NNW,332,1.0,21.0,68,0.00,,,0.00,Wunderground v.1.15,2013-05-25 07:58:00,
2013-05-25 02:00:00,42.6,32.8,22.61,NNW,329,1.0,21.0,68,0.00,,,0.00,Wunderground v.1.15,2013-05-25 08:00:00,
2013-05-25 02:02:00,42.6,32.4,22.61,NNW,329,1.0,1.0,67,0.00,,,0.00,Wunderground v.1.15,2013-05-25 08:02:00,
2013-05-25 02:04:00,42.4,32.2,22.61,SW,214,1.0,21.0,67,0.00,,,0.00,Wunderground v.1.15,2013-05-25 08:04:00,
2013-05-25 02:06:00,42.2,32.4,22.61,SW,214,1.0,21.0,68,0.00,,,0.00,Wunderground v.1.15,2013-05-25 08:06:00,
2013-05-25 02:11:00,41.7,32.3,22.61,SW,214,0.0,21.0,69,0.00,,,0.00,Wunderground v.1.15,2013-05-25 08:11:00,
2013-05-25 02:13:00,41.5,32.1,22.61,SW,214,0.0,21.0,69,0.00,,,0.00,Wunderground v.1.15,2013-05-25 08:13:00,
2013-05-25 02:17:00,41.2,32.2,22.61,West,262,0.0,21.0,70,0.00,,,0.00,Wunderground v.1.15,2013-05-25 08:17:00,
2013-05-25 02:18:00,41.3,32.2,22.61,NW,316,1.0,21.0,70,0.00,,,0.00,Wunderground v.1.15,2013-05-25 08:18:00,
2013-05-25 02:20:00,41.4,32.3,22.61,NW,316,1.0,21.0,70,0.00,,,0.00,Wunderground v.1.15,2013-05-25 08:20:00,
2013-05-25 02:22:00,41.4,32.3,22.61,NW,316,1.0,21.0,70,0.00,,,0.00,Wunderground v.1.15,2013-05-25 08:22:00,
2013-05-25 02:24:00,41.4,32.7,22.61,NW,316,1.0,21.0,71,0.00,,,0.00,Wunderground v.1.15,2013-05-25 08:24:00,
2013-05-25 02:26:00,41.3,32.6,22.61,NW,316,1.0,21.0,71,0.00,,,0.00,Wunderground v.1.15,2013-05-25 08:26:00,
2013-05-25 02:30:00,41.0,32.3,22.60,NW,316,0.0,21.0,71,0.00,,,0.00,Wunderground v.1.15,2013-05-25 08:30:00,
2013-05-25 02:32:00,41.0,32.3,22.60,NW,316,0.0,21.0,71,0.00,,,0.00,Wunderground v.1.15,2013-05-25 08:32:00,
2013-05-25 02:37:00,40.7,32.4,22.60,ESE,108,1.0,21.0,72,0.00,,,0.00,Wunderground v.1.15,2013-05-25 08:37:00,
2013-05-25 02:39:00,40.6,32.3,22.60,North,357,1.0,21.0,72,0.00,,,0.00,Wunderground v.1.15,2013-05-25 08:39:00,
2013-05-25 02:40:00,40.6,32.3,22.60,North,357,1.0,21.0,72,0.00,,,0.00,Wunderground v.1.15,2013-05-25 08:40:00,
2013-05-25 02:42:00,40.6,32.6,22.60,North,357,1.0,1.0,73,0.00,,,0.00,Wunderground v.1.15,2013-05-25 08:42:00,
2013-05-25 02:46:00,40.5,32.9,22.60,NW,326,1.0,21.0,74,0.00,,,0.00,Wunderground v.1.15,2013-05-25 08:46:00,
2013-05-25 02:50:00,40.6,33.3,22.60,NNW,333,1.0,21.0,75,0.00,,,0.00,Wunderground v.1.15,2013-05-25 08:50:00,
2013-05-25 02:52:00,40.7,33.4,22.60,NNW,333,1.0,1.0,75,0.00,,,0.00,Wunderground v.1.15,2013-05-25 08:52:00,
2013-05-25 02:54:00,40.8,33.5,22.60,NNW,333,1.0,2.0,75,0.00,,,0.00,Wunderground v.1.15,2013-05-25 08:54:00,
2013-05-25 02:59:00,40.8,33.5,22.60,WSW,250,1.0,21.0,75,0.00,,,0.00,Wunderground v.1.15,2013-05-25 08:59:00,
2013-05-25 03:01:00,40.7,33.4,22.60,West,260,1.0,21.0,75,0.00,,,0.00,Wunderground v.1.15,2013-05-25 09:01:00,
2013-05-25 03:05:00,40.5,33.2,22.60,North,354,1.0,2.0,75,0.00,,,0.00,Wunderground v.1.15,2013-05-25 09:05:00,
2013-05-25 03:06:00,40.4,33.1,22.60,NNW,343,1.0,21.0,75,0.00,,,0.00,Wunderground v.1.15,2013-05-25 09:06:00,
2013-05-25 03:08:00,40.4,33.1,22.60,SW,214,1.0,21.0,75,0.00,,,0.00,Wunderground v.1.15,2013-05-25 09:08:00,
2013-05-25 03:10:00,40.2,33.2,22.60,SSW,204,1.0,21.0,76,0.00,,,0.00,Wunderground v.1.15,2013-05-25 09:10:00,
2013-05-25 03:12:00,40.0,33.0,22.60,SSW,204,1.0,21.0,76,0.00,,,0.00,Wunderground v.1.15,2013-05-25 09:12:00,
2013-05-25 03:14:00,40.0,33.4,22.60,SSW,207,1.0,21.0,77,0.00,,,0.00,Wunderground v.1.15,2013-05-25 09:14:00,
2013-05-25 03:16:00,40.1,33.8,22.60,WSW,247,1.0,21.0,78,0.00,,,0.00,Wunderground v.1.15,2013-05-25 09:16:00,
2013-05-25 03:20:00,40.0,33.4,22.60,WSW,257,1.0,21.0,77,0.00,,,0.00,Wunderground v.1.15,2013-05-25 09:20:00,
2013-05-25 03:25:00,39.9,33.6,22.60,SSW,205,1.0,21.0,78,0.00,,,0.00,Wunderground v.1.15,2013-05-25 09:25:00,
2013-05-25 03:28:00,39.7,33.4,22.60,NNW,338,1.0,21.0,78,0.00,,,0.00,Wunderground v.1.15,2013-05-25 09:28:00,
2013-05-25 03:30:00,39.7,33.4,22.60,NNW,328,1.0,21.0,78,0.00,,,0.00,Wunderground v.1.15,2013-05-25 09:30:00,
2013-05-25 03:32:00,39.6,33.6,22.60,WSW,253,1.0,21.0,79,0.00,,,0.00,Wunderground v.1.15,2013-05-25 09:32:00,
2013-05-25 03:34:00,39.5,33.5,22.60,NNW,342,1.0,21.0,79,0.00,,,0.00,Wunderground v.1.15,2013-05-25 09:34:00,
2013-05-25 03:36:00,39.4,33.7,22.60,NNW,342,1.0,21.0,80,0.00,,,0.00,Wunderground v.1.15,2013-05-25 09:36:00,
2013-05-25 03:38:00,39.3,33.3,22.60,NNW,343,1.0,21.0,79,0.00,,,0.00,Wunderground v.1.15,2013-05-25 09:38:00,
2013-05-25 03:40:00,39.3,33.6,22.60,NNW,343,1.0,21.0,80,0.00,,,0.00,Wunderground v.1.15,2013-05-25 09:40:00,
2013-05-25 03:45:00,39.2,33.5,22.60,West,267,1.0,2.0,80,0.00,,,0.00,Wunderground v.1.15,2013-05-25 09:45:00,
2013-05-25 03:47:00,39.1,33.5,22.60,WNW,283,1.0,21.0,80,0.00,,,0.00,Wunderground v.1.15,2013-05-25 09:47:00,
2013-05-25 03:51:00,39.0,33.4,22.60,NNW,338,1.0,21.0,80,0.00,,,0.00,Wunderground v.1.15,2013-05-25 09:51:00,
2013-05-25 03:52:00,39.0,33.4,22.60,NNW,339,1.0,1.0,80,0.00,,,0.00,Wunderground v.1.15,2013-05-25 09:52:00,
2013-05-25 03:54:00,39.0,33.4,22.60,NNW,339,1.0,21.0,80,0.00,,,0.00,Wunderground v.1.15,2013-05-25 09:54:00,
2013-05-25 03:56:00,38.9,33.3,22.60,West,280,1.0,21.0,80,0.00,,,0.00,Wunderground v.1.15,2013-05-25 09:56:00,
2013-05-25 04:00:00,38.6,33.0,22.60,West,279,0.0,21.0,80,0.00,,,0.00,Wunderground v.1.15,2013-05-25 10:00:00,
2013-05-25 04:02:00,38.5,33.2,22.60,NNW,342,0.0,21.0,81,0.00,,,0.00,Wunderground v.1.15,2013-05-25 10:02:00,
2013-05-25 04:04:00,38.4,33.1,22.60,NNW,342,0.0,21.0,81,0.00,,,0.00,Wunderground v.1.15,2013-05-25 10:04:00,
2013-05-25 04:06:00,38.3,33.0,22.60,West,281,0.0,21.0,81,0.00,,,0.00,Wunderground v.1.15,2013-05-25 10:06:00,
2013-05-25 04:08:00,38.2,33.2,22.60,NNW,333,1.0,21.0,82,0.00,,,0.00,Wunderground v.1.15,2013-05-25 10:08:00,
2013-05-25 04:13:00,38.1,33.4,22.60,NNW,342,1.0,21.0,83,0.00,,,0.00,Wunderground v.1.15,2013-05-25 10:13:00,
2013-05-25 04:14:00,38.1,33.1,22.61,NNW,342,1.0,21.0,82,0.00,,,0.00,Wunderground v.1.15,2013-05-25 10:14:00,
2013-05-25 04:16:00,38.2,33.5,22.60,North,355,1.0,21.0,83,0.00,,,0.00,Wunderground v.1.15,2013-05-25 10:16:00,
2013-05-25 04:18:00,38.2,33.2,22.60,South,190,1.0,21.0,82,0.00,,,0.00,Wunderground v.1.15,2013-05-25 10:18:00,
2013-05-25 04:20:00,38.1,33.1,22.60,South,181,1.0,21.0,82,0.00,,,0.00,Wunderground v.1.15,2013-05-25 10:20:00,
2013-05-25 04:24:00,38.0,33.6,22.60,NNE,30,2.0,21.0,84,0.00,,,0.00,Wunderground v.1.15,2013-05-25 10:24:00,
2013-05-25 04:26:00,38.0,33.6,22.60,North,11,2.0,21.0,84,0.00,,,0.00,Wunderground v.1.15,2013-05-25 10:26:00,
2013-05-25 04:31:00,37.7,33.3,22.61,SW,222,2.0,21.0,84,0.00,,,0.00,Wunderground v.1.15,2013-05-25 10:31:00,
2013-05-25 04:35:00,37.5,33.4,22.60,WSW,243,2.0,21.0,85,0.00,,,0.00,Wunderground v.1.15,2013-05-25 10:35:00,
2013-05-25 04:37:00,37.5,33.4,22.60,NW,322,2.0,21.0,85,0.00,,,0.00,Wunderground v.1.15,2013-05-25 10:37:00,
2013-05-25 04:40:00,37.5,33.4,22.61,NW,318,2.0,21.0,85,0.00,,,0.00,Wunderground v.1.15,2013-05-25 10:40:00,
2013-05-25 04:44:00,37.5,33.4,22.60,North,357,1.0,21.0,85,0.00,,,0.00,Wunderground v.1.15,2013-05-25 10:44:00,
2013-05-25 04:46:00,37.6,33.8,22.60,North,6,1.0,21.0,86,0.00,,,0.00,Wunderground v.1.15,2013-05-25 10:46:00,
2013-05-25 04:50:00,37.6,33.2,22.61,South,178,1.0,21.0,84,0.00,,,0.00,Wunderground v.1.15,2013-05-25 10:50:00,
2013-05-25 04:52:00,37.4,33.0,22.61,North,351,1.0,21.0,84,0.00,,,0.00,Wunderground v.1.15,2013-05-25 10:52:00,
2013-05-25 04:59:00,37.2,33.1,22.61,South,189,2.0,21.0,85,0.00,,,0.00,Wunderground v.1.15,2013-05-25 10:59:00,
2013-05-25 05:00:00,37.0,32.9,22.61,South,188,2.0,21.0,85,0.00,,,0.00,Wunderground v.1.15,2013-05-25 11:00:00,
2013-05-25 05:04:00,36.7,32.9,22.61,South,172,1.0,2.0,86,0.00,,,0.00,Wunderground v.1.15,2013-05-25 11:04:00,
2013-05-25 05:06:00,36.6,32.8,22.61,WSW,238,1.0,21.0,86,0.00,,,0.00,Wunderground v.1.15,2013-05-25 11:06:00,
2013-05-25 05:08:00,36.6,32.8,22.61,SW,231,1.0,21.0,86,0.00,,,0.00,Wunderground v.1.15,2013-05-25 11:08:00,
2013-05-25 05:10:00,36.5,32.7,22.61,NNW,339,1.0,21.0,86,0.00,,,0.00,Wunderground v.1.15,2013-05-25 11:10:00,
2013-05-25 05:14:00,36.6,33.1,22.61,SW,232,2.0,21.0,87,0.00,,,0.00,Wunderground v.1.15,2013-05-25 11:14:00,
2013-05-25 05:21:00,36.7,33.2,22.61,North,359,2.0,21.0,87,0.00,,,0.00,Wunderground v.1.15,2013-05-25 11:21:00,
2013-05-25 05:23:00,36.6,32.8,22.61,SW,214,1.0,21.0,86,0.00,,,0.00,Wunderground v.1.15,2013-05-25 11:23:00,
2013-05-25 05:25:00,36.3,32.2,22.61,SW,236,1.0,21.0,85,0.00,,,0.00,Wunderground v.1.15,2013-05-25 11:25:00,
2013-05-25 05:26:00,36.1,32.3,22.61,WSW,238,1.0,21.0,86,0.00,,,0.00,Wunderground v.1.15,2013-05-25 11:26:00,
2013-05-25 05:29:00,35.9,32.1,22.61,WSW,238,1.0,21.0,86,0.00,,,0.00,Wunderground v.1.15,2013-05-25 11:29:00,
2013-05-25 05:32:00,35.9,32.7,22.61,WNW,293,1.0,21.0,88,0.00,,,0.00,Wunderground v.1.15,2013-05-25 11:32:00,
2013-05-25 05:36:00,35.9,32.7,22.61,NNW,347,1.0,21.0,88,0.00,,,0.00,Wunderground v.1.15,2013-05-25 11:36:00,
2013-05-25 05:38:00,36.0,32.8,22.62,NNW,342,1.0,21.0,88,0.00,,,0.00,Wunderground v.1.15,2013-05-25 11:38:00,
2013-05-25 05:45:00,36.2,33.0,22.61,NW,308,1.0,21.0,88,0.00,,,0.00,Wunderground v.1.15,2013-05-25 11:45:00,
2013-05-25 05:47:00,36.3,32.8,22.61,WSW,251,1.0,21.0,87,0.00,,,0.00,Wunderground v.1.15,2013-05-25 11:47:00,
2013-05-25 05:52:00,36.3,32.8,22.62,WSW,252,1.0,1.0,87,0.00,,,0.00,Wunderground v.1.15,2013-05-25 11:52:00,
2013-05-25 05:54:00,36.2,32.4,22.62,NNW,332,0.0,2.0,86,0.00,,,0.00,Wunderground v.1.15,2013-05-25 11:54:00,
2013-05-25 05:56:00,36.2,32.7,22.62,NNW,333,1.0,21.0,87,0.00,,,0.00,Wunderground v.1.15,2013-05-25 11:56:00,
2013-05-25 06:00:00,36.3,32.8,22.62,NNW,333,1.0,21.0,87,0.00,,,0.00,Wunderground v.1.15,2013-05-25 12:00:00,
2013-05-25 06:02:00,36.3,32.5,22.62,NNW,333,1.0,1.0,86,0.00,,,0.00,Wunderground v.1.15,2013-05-25 12:02:00,
2013-05-25 06:06:00,36.1,32.3,22.62,NNW,333,0.0,21.0,86,0.00,,,0.00,Wunderground v.1.15,2013-05-25 12:06:00,
2013-05-25 06:08:00,36.1,32.6,22.62,NNW,333,0.0,21.0,87,0.00,,,0.00,Wunderground v.1.15,2013-05-25 12:08:00,
2013-05-25 06:11:00,36.3,32.8,22.62,NNW,333,1.0,21.0,87,0.00,,,0.00,Wunderground v.1.15,2013-05-25 12:11:00,
2013-05-25 06:15:00,36.8,33.3,22.62,NE,56,1.0,21.0,87,0.00,,,0.00,Wunderground v.1.15,2013-05-25 12:15:00,
2013-05-25 06:18:00,37.3,33.5,22.62,ENE,72,1.0,21.0,86,0.00,,,0.00,Wunderground v.1.15,2013-05-25 12:18:00,
2013-05-25 06:22:00,37.9,33.2,22.62,SSW,212,2.0,21.0,83,0.00,,,0.00,Wunderground v.1.15,2013-05-25 12:22:00,
2013-05-25 06:24:00,38.1,32.8,22.62,North,360,2.0,21.0,81,0.00,,,0.00,Wunderground v.1.15,2013-05-25 12:24:00,
2013-05-25 06:26:00,38.4,33.1,22.62,North,351,2.0,21.0,81,0.00,,,0.00,Wunderground v.1.15,2013-05-25 12:26:00,
2013-05-25 06:28:00,38.9,33.3,22.62,North,351,2.0,21.0,80,0.00,,,0.00,Wunderground v.1.15,2013-05-25 12:28:00,
2013-05-25 06:31:00,39.2,33.2,22.62,West,274,2.0,21.0,79,0.00,,,0.00,Wunderground v.1.15,2013-05-25 12:31:00,
2013-05-25 06:33:00,39.6,33.9,22.62,West,274,2.0,2.0,80,0.00,,,0.00,Wunderground v.1.15,2013-05-25 12:33:00,
2013-05-25 06:37:00,40.8,34.1,22.63,ESE,115,1.0,21.0,77,0.00,,,0.00,Wunderground v.1.15,2013-05-25 12:37:00,
2013-05-25 06:38:00,41.2,33.9,22.63,North,8,1.0,21.0,75,0.00,,,0.00,Wunderground v.1.15,2013-05-25 12:38:00,
2013-05-25 06:42:00,41.5,33.8,22.63,NE,40,1.0,1.0,74,0.00,,,0.00,Wunderground v.1.15,2013-05-25 12:42:00,
2013-05-25 06:44:00,41.6,33.9,22.63,NE,40,1.0,21.0,74,0.00,,,0.00,Wunderground v.1.15,2013-05-25 12:44:00,
2013-05-25 06:46:00,41.8,34.1,22.63,NE,39,1.0,21.0,74,0.00,,,0.00,Wunderground v.1.15,2013-05-25 12:46:00,
2013-05-25 06:50:00,42.4,34.0,22.63,East,81,1.0,21.0,72,0.00,,,0.00,Wunderground v.1.15,2013-05-25 12:50:00,
2013-05-25 06:52:00,42.7,33.9,22.63,East,81,1.0,1.0,71,0.00,,,0.00,Wunderground v.1.15,2013-05-25 12:52:00,
2013-05-25 06:54:00,43.0,34.6,22.62,East,83,1.0,3.0,72,0.00,,,0.00,Wunderground v.1.15,2013-05-25 12:54:00,
2013-05-25 06:59:00,43.5,34.4,22.63,SW,233,1.0,21.0,70,0.00,,,0.00,Wunderground v.1.15,2013-05-25 12:59:00,
2013-05-25 07:01:00,43.3,34.5,22.63,NNW,339,1.0,21.0,71,0.00,,,0.00,Wunderground v.1.15,2013-05-25 13:01:00,
2013-05-25 07:03:00,43.4,34.6,22.63,East,92,1.0,21.0,71,0.00,,,0.00,Wunderground v.1.15,2013-05-25 13:03:00,
2013-05-25 07:06:00,44.0,34.8,22.63,East,96,1.0,21.0,70,0.00,,,0.00,Wunderground v.1.15,2013-05-25 13:06:00,
2013-05-25 07:08:00,44.5,35.0,22.63,SSE,158,1.0,21.0,69,0.00,,,0.00,Wunderground v.1.15,2013-05-25 13:08:00,
2013-05-25 07:10:00,45.0,35.1,22.63,SSE,158,1.0,21.0,68,0.00,,,0.00,Wunderground v.1.15,2013-05-25 13:10:00,
2013-05-25 07:14:00,45.9,34.4,22.63,SSE,157,0.0,21.0,64,0.00,,,0.00,Wunderground v.1.15,2013-05-25 13:14:00,
2013-05-25 07:16:00,46.2,34.3,22.63,SE,142,0.0,21.0,63,0.00,,,0.00,Wunderground v.1.15,2013-05-25 13:16:00,
2013-05-25 07:21:00,46.3,35.2,22.63,SSW,204,1.0,21.0,65,0.00,,,0.00,Wunderground v.1.15,2013-05-25 13:21:00,
2013-05-25 07:23:00,46.0,34.1,22.63,SW,221,1.0,1.0,63,0.00,,,0.00,Wunderground v.1.15,2013-05-25 13:23:00,
2013-05-25 07:25:00,46.0,34.1,22.63,SW,221,1.0,21.0,63,0.00,,,0.00,Wunderground v.1.15,2013-05-25 13:25:00,
2013-05-25 07:26:00,46.5,34.2,22.63,NE,47,1.0,21.0,62,0.00,,,0.00,Wunderground v.1.15,2013-05-25 13:26:00,
2013-05-25 07:28:00,47.0,34.2,22.62,ENE,58,1.0,21.0,61,0.00,,,0.00,Wunderground v.1.15,2013-05-25 13:28:00,
2013-05-25 07:30:00,47.4,34.6,22.63,ENE,58,1.0,21.0,61,0.00,,,0.00,Wunderground v.1.15,2013-05-25 13:30:00,
2013-05-25 07:34:00,48.6,34.5,22.63,NNW,335,1.0,21.0,58,0.00,,,0.00,Wunderground v.1.15,2013-05-25 13:34:00,
2013-05-25 07:36:00,48.9,34.3,22.63,NNW,343,1.0,21.0,57,0.00,,,0.00,Wunderground v.1.15,2013-05-25 13:36:00,
2013-05-25 07:38:00,49.3,34.7,22.63,SW,214,1.0,21.0,57,0.00,,,0.00,Wunderground v.1.15,2013-05-25 13:38:00,
2013-05-25 07:40:00,49.7,35.5,22.63,SW,214,1.0,21.0,58,0.00,,,0.00,Wunderground v.1.15,2013-05-25 13:40:00,
2013-05-25 07:42:00,50.3,35.6,22.62,ENE,68,1.0,21.0,57,0.00,,,0.00,Wunderground v.1.15,2013-05-25 13:42:00,
2013-05-25 07:45:00,50.8,36.1,22.63,SSE,150,1.0,21.0,57,0.00,,,0.00,Wunderground v.1.15,2013-05-25 13:45:00,
2013-05-25 07:47:00,51.3,35.7,22.63,SSE,151,1.0,21.0,55,0.00,,,0.00,Wunderground v.1.15,2013-05-25 13:47:00,
2013-05-25 07:51:00,52.6,35.0,22.62,SE,143,1.0,21.0,51,0.00,,,0.00,Wunderground v.1.15,2013-05-25 13:51:00,
2013-05-25 07:52:00,53.2,36.0,22.62,SE,143,1.0,1.0,52,0.00,,,0.00,Wunderground v.1.15,2013-05-25 13:52:00,
2013-05-25 07:54:00,53.9,34.6,22.62,ESE,115,0.0,21.0,48,0.00,,,0.00,Wunderground v.1.15,2013-05-25 13:54:00,
2013-05-25 07:56:00,54.5,36.7,22.62,South,178,0.0,21.0,51,0.00,,,0.00,Wunderground v.1.15,2013-05-25 13:56:00,
2013-05-25 07:58:00,54.6,36.3,22.62,SSE,155,0.0,21.0,50,0.00,,,0.00,Wunderground v.1.15,2013-05-25 13:58:00,
2013-05-25 08:00:00,54.6,36.3,22.62,SSE,160,0.0,21.0,50,0.00,,,0.00,Wunderground v.1.15,2013-05-25 14:00:00,
2013-05-25 08:02:00,54.6,37.3,22.62,SSE,159,0.0,21.0,52,0.00,,,0.00,Wunderground v.1.15,2013-05-25 14:02:00,
2013-05-25 08:07:00,54.9,36.6,22.62,SE,133,1.0,21.0,50,0.00,,,0.00,Wunderground v.1.15,2013-05-25 14:07:00,
2013-05-25 08:09:00,55.1,35.2,22.63,SE,133,1.0,21.0,47,0.00,,,0.00,Wunderground v.1.15,2013-05-25 14:09:00,
2013-05-25 08:12:00,55.5,35.6,22.62,SE,132,0.0,21.0,47,0.00,,,0.00,Wunderground v.1.15,2013-05-25 14:12:00,
2013-05-25 08:18:00,56.3,35.8,22.62,ESE,115,0.0,21.0,46,0.00,,,0.00,Wunderground v.1.15,2013-05-25 14:18:00,
2013-05-25 08:20:00,56.7,35.0,22.62,NNW,345,0.0,21.0,44,0.00,,,0.00,Wunderground v.1.15,2013-05-25 14:20:00,
2013-05-25 08:22:00,56.9,35.8,22.62,SSW,202,0.0,21.0,45,0.00,,,0.00,Wunderground v.1.15,2013-05-25 14:22:00,
2013-05-25 08:24:00,57.1,35.9,22.62,SE,139,0.0,21.0,45,0.00,,,0.00,Wunderground v.1.15,2013-05-25 14:24:00,
2013-05-25 08:28:00,57.6,35.2,22.62,NNW,331,1.0,21.0,43,0.00,,,0.00,Wunderground v.1.15,2013-05-25 14:28:00,
2013-05-25 08:31:00,57.5,34.0,22.62,NNW,337,1.0,21.0,41,0.00,,,0.00,Wunderground v.1.15,2013-05-25 14:31:00,
2013-05-25 08:33:00,57.7,33.5,22.62,WNW,284,1.0,21.0,40,0.00,,,0.00,Wunderground v.1.15,2013-05-25 14:33:00,
2013-05-25 08:38:00,59.4,37.5,22.62,SSE,160,1.0,21.0,44,0.00,,,0.00,Wunderground v.1.15,2013-05-25 14:38:00,
2013-05-25 08:40:00,59.7,35.3,22.62,ESE,122,1.0,21.0,40,0.00,,,0.00,Wunderground v.1.15,2013-05-25 14:40:00,
2013-05-25 08:42:00,60.2,36.4,22.62,NE,47,1.0,1.0,41,0.00,,,0.00,Wunderground v.1.15,2013-05-25 14:42:00,
2013-05-25 08:44:00,60.4,35.9,22.62,NE,44,1.0,21.0,40,0.00,,,0.00,Wunderground v.1.15,2013-05-25 14:44:00,
2013-05-25 08:46:00,60.7,37.5,22.62,ENE,65,1.0,21.0,42,0.00,,,0.00,Wunderground v.1.15,2013-05-25 14:46:00,
2013-05-25 08:48:00,60.8,36.9,22.62,ESE,111,1.0,21.0,41,0.00,,,0.00,Wunderground v.1.15,2013-05-25 14:48:00,
2013-05-25 08:53:00,61.2,38.5,22.63,South,174,1.0,21.0,43,0.00,,,0.00,Wunderground v.1.15,2013-05-25 14:53:00,
2013-05-25 08:55:00,61.3,38.0,22.63,SSW,205,2.0,21.0,42,0.00,,,0.00,Wunderground v.1.15,2013-05-25 14:55:00,
2013-05-25 08:57:00,61.3,36.1,22.62,SSE,148,2.0,21.0,39,0.00,,,0.00,Wunderground v.1.15,2013-05-25 14:57:00,
2013-05-25 09:00:00,61.7,34.5,22.62,South,171,2.0,21.0,36,0.00,,,0.00,Wunderground v.1.15,2013-05-25 15:00:00,
2013-05-25 09:04:00,62.0,31.8,22.62,SSW,198,2.0,21.0,32,0.00,,,0.00,Wunderground v.1.15,2013-05-25 15:04:00,
2013-05-25 09:06:00,62.1,31.1,22.62,SE,133,2.0,21.0,31,0.00,,,0.00,Wunderground v.1.15,2013-05-25 15:06:00,
2013-05-25 09:10:00,62.6,31.5,22.62,SE,139,2.0,21.0,31,0.00,,,0.00,Wunderground v.1.15,2013-05-25 15:10:00,
2013-05-25 09:12:00,63.3,27.8,22.62,SSE,148,1.0,21.0,26,0.00,,,0.00,Wunderground v.1.15,2013-05-25 15:12:00,
2013-05-25 09:19:00,65.2,28.5,22.62,SSW,193,1.0,21.0,25,0.00,,,0.00,Wunderground v.1.15,2013-05-25 15:19:00,
2013-05-25 09:21:00,65.5,27.7,22.62,SW,226,1.0,21.0,24,0.00,,,0.00,Wunderground v.1.15,2013-05-25 15:21:00,
2013-05-25 09:25:00,65.8,25.9,22.62,NW,319,1.0,21.0,22,0.00,,,0.00,Wunderground v.1.15,2013-05-25 15:25:00,
2013-05-25 09:26:00,66.0,19.9,22.62,WSW,249,2.0,21.0,17,0.00,,,0.00,Wunderground v.1.15,2013-05-25 15:26:00,
2013-05-25 09:28:00,66.2,15.5,22.62,SW,214,2.0,21.0,14,0.00,,,0.00,Wunderground v.1.15,2013-05-25 15:28:00,
2013-05-25 09:32:00,66.4,15.7,22.62,WSW,239,3.0,3.0,14,0.00,,,0.00,Wunderground v.1.15,2013-05-25 15:32:00,
2013-05-25 09:34:00,66.5,18.9,22.62,West,268,3.0,21.0,16,0.00,,,0.00,Wunderground v.1.15,2013-05-25 15:34:00,
2013-05-25 09:36:00,66.6,14.2,22.62,SW,222,3.0,21.0,13,0.00,,,0.00,Wunderground v.1.15,2013-05-25 15:36:00,
2013-05-25 09:39:00,66.5,15.8,22.62,North,356,3.0,21.0,14,0.00,,,0.00,Wunderground v.1.15,2013-05-25 15:39:00,
2013-05-25 09:45:00,66.7,14.2,22.62,East,99,4.0,21.0,13,0.00,,,0.00,Wunderground v.1.15,2013-05-25 15:45:00,
2013-05-25 09:47:00,66.6,17.4,22.62,West,260,4.0,21.0,15,0.00,,,0.00,Wunderground v.1.15,2013-05-25 15:47:00,
2013-05-25 09:49:00,66.5,15.8,22.62,SSW,194,5.0,21.0,14,0.00,,,0.00,Wunderground v.1.15,2013-05-25 15:49:00,
2013-05-25 09:51:00,66.5,15.8,22.62,NNW,333,6.0,21.0,14,0.00,,,0.00,Wunderground v.1.15,2013-05-25 15:51:00,
2013-05-25 09:52:00,66.6,14.2,22.62,West,281,5.0,5.0,13,0.00,,,0.00,Wunderground v.1.15,2013-05-25 15:52:00,
2013-05-25 09:54:00,66.5,14.1,22.62,South,190,5.0,21.0,13,0.00,,,0.00,Wunderground v.1.15,2013-05-25 15:54:00,
2013-05-25 09:56:00,66.5,17.4,22.62,SSW,205,5.0,21.0,15,0.00,,,0.00,Wunderground v.1.15,2013-05-25 15:56:00,
2013-05-25 09:58:00,66.6,17.4,22.62,WSW,246,5.0,21.0,15,0.00,,,0.00,Wunderground v.1.15,2013-05-25 15:58:00,
2013-05-25 10:00:00,66.6,15.9,22.62,SW,214,5.0,21.0,14,0.00,,,0.00,Wunderground v.1.15,2013-05-25 16:00:00,
2013-05-25 10:05:00,66.4,12.2,22.62,SW,218,5.0,6.0,12,0.00,,,0.00,Wunderground v.1.15,2013-05-25 16:05:00,
2013-05-25 10:07:00,66.2,13.8,22.62,SSW,210,6.0,7.0,13,0.00,,,0.00,Wunderground v.1.15,2013-05-25 16:07:00,
2013-05-25 10:09:00,66.1,13.8,22.62,SW,214,7.0,8.0,13,0.00,,,0.00,Wunderground v.1.15,2013-05-25 16:09:00,
2013-05-25 10:11:00,66.2,17.1,22.62,WSW,238,8.0,13.0,15,0.00,,,0.00,Wunderground v.1.15,2013-05-25 16:11:00,
2013-05-25 10:12:00,66.3,13.9,22.62,WNW,288,8.0,8.0,13,0.00,,,0.00,Wunderground v.1.15,2013-05-25 16:12:00,
2013-05-25 10:16:00,66.7,14.2,22.61,SW,214,7.0,21.0,13,0.00,,,0.00,Wunderground v.1.15,2013-05-25 16:16:00,
2013-05-25 10:18:00,66.9,16.1,22.61,WSW,257,6.0,21.0,14,0.00,,,0.00,Wunderground v.1.15,2013-05-25 16:18:00,
2013-05-25 10:20:00,67.4,14.8,22.61,West,259,5.0,21.0,13,0.00,,,0.00,Wunderground v.1.15,2013-05-25 16:20:00,
2013-05-25 10:24:00,67.7,13.2,22.61,SW,214,3.0,21.0,12,0.00,,,0.00,Wunderground v.1.15,2013-05-25 16:24:00,
2013-05-25 10:26:00,67.7,11.2,22.62,NW,311,4.0,21.0,11,0.00,,,0.00,Wunderground v.1.15,2013-05-25 16:26:00,
2013-05-25 10:31:00,67.8,16.8,22.61,SW,225,4.0,21.0,14,0.00,,,0.00,Wunderground v.1.15,2013-05-25 16:31:00,
2013-05-25 10:33:00,67.8,13.3,22.61,WSW,249,4.0,21.0,12,0.00,,,0.00,Wunderground v.1.15,2013-05-25 16:33:00,
2013-05-25 10:37:00,67.9,13.3,22.61,WNW,301,4.0,21.0,12,0.00,,,0.00,Wunderground v.1.15,2013-05-25 16:37:00,
2013-05-25 10:38:00,68.0,15.3,22.61,SSW,209,5.0,21.0,13,0.00,,,0.00,Wunderground v.1.15,2013-05-25 16:38:00,
2013-05-25 10:42:00,68.9,17.7,22.61,West,260,4.0,4.0,14,0.00,,,0.00,Wunderground v.1.15,2013-05-25 16:42:00,
2013-05-25 10:44:00,69.2,19.5,22.61,SW,224,3.0,6.0,15,0.00,,,0.00,Wunderground v.1.15,2013-05-25 16:44:00,
2013-05-25 10:50:00,68.5,17.4,22.61,SW,225,4.0,21.0,14,0.00,,,0.00,Wunderground v.1.15,2013-05-25 16:50:00,
2013-05-25 10:53:00,69.0,19.4,22.61,WNW,299,3.0,21.0,15,0.00,,,0.00,Wunderground v.1.15,2013-05-25 16:53:00,
2013-05-25 10:59:00,69.3,16.3,22.61,WSW,249,3.0,21.0,13,0.00,,,0.00,Wunderground v.1.15,2013-05-25 16:59:00,
2013-05-25 11:03:00,69.3,14.4,22.61,WSW,245,4.0,21.0,12,0.00,,,0.00,Wunderground v.1.15,2013-05-25 17:03:00,
2013-05-25 11:04:00,69.2,12.4,22.61,WSW,249,5.0,21.0,11,0.00,,,0.00,Wunderground v.1.15,2013-05-25 17:04:00,
2013-05-25 11:06:00,69.2,12.4,22.61,SSW,198,6.0,21.0,11,0.00,,,0.00,Wunderground v.1.15,2013-05-25 17:06:00,
2013-05-25 11:10:00,69.1,16.1,22.61,SW,236,6.0,21.0,13,0.00,,,0.00,Wunderground v.1.15,2013-05-25 17:10:00,
2013-05-25 11:12:00,69.2,12.4,22.61,SSW,212,6.0,6.0,11,0.00,,,0.00,Wunderground v.1.15,2013-05-25 17:12:00,
2013-05-25 11:14:00,69.1,16.1,22.61,WSW,255,6.0,21.0,13,0.00,,,0.00,Wunderground v.1.15,2013-05-25 17:14:00,
2013-05-25 11:21:00,69.7,12.8,22.60,South,184,5.0,21.0,11,0.00,,,0.00,Wunderground v.1.15,2013-05-25 17:21:00,
2013-05-25 11:23:00,69.8,18.4,22.60,SW,218,4.0,21.0,14,0.00,,,0.00,Wunderground v.1.15,2013-05-25 17:23:00,
2013-05-25 11:29:00,69.6,14.7,22.60,SW,231,6.0,21.0,12,0.00,,,0.00,Wunderground v.1.15,2013-05-25 17:29:00,
2013-05-25 11:30:00,69.6,12.7,22.60,WSW,247,7.0,21.0,11,0.00,,,0.00,Wunderground v.1.15,2013-05-25 17:30:00,
2013-05-25 11:32:00,69.6,10.5,22.60,South,176,8.0,8.0,10,0.00,,,0.00,Wunderground v.1.15,2013-05-25 17:32:00,
2013-05-25 11:36:00,69.9,12.9,22.60,SSW,205,8.0,21.0,11,0.00,,,0.00,Wunderground v.1.15,2013-05-25 17:36:00,
2013-05-25 11:38:00,69.8,10.7,22.60,SW,231,7.0,21.0,10,0.00,,,0.00,Wunderground v.1.15,2013-05-25 17:38:00,
2013-05-25 11:43:00,69.4,10.4,22.60,SW,218,6.0,21.0,10,0.00,,,0.00,Wunderground v.1.15,2013-05-25 17:43:00,
2013-05-25 11:45:00,69.6,14.7,22.60,SSW,203,6.0,21.0,12,0.00,,,0.00,Wunderground v.1.15,2013-05-25 17:45:00,
2013-05-25 11:51:00,70.2,13.2,22.60,SSE,158,7.0,21.0,11,0.00,,,0.00,Wunderground v.1.15,2013-05-25 17:51:00,
2013-05-25 11:53:00,70.3,17.1,22.60,South,179,7.0,7.0,13,0.00,,,0.00,Wunderground v.1.15,2013-05-25 17:53:00,
2013-05-25 11:56:00,70.6,13.5,22.60,SW,222,6.0,21.0,11,0.00,,,0.00,Wunderground v.1.15,2013-05-25 17:56:00,
2013-05-25 11:58:00,70.7,13.5,22.60,SSE,159,6.0,21.0,11,0.00,,,0.00,Wunderground v.1.15,2013-05-25 17:58:00,
2013-05-25 12:04:00,71.0,13.8,22.60,SSE,164,6.0,21.0,11,0.00,,,0.00,Wunderground v.1.15,2013-05-25 18:04:00,
2013-05-25 12:08:00,70.7,13.5,22.60,SW,236,7.0,21.0,11,0.00,,,0.00,Wunderground v.1.15,2013-05-25 18:08:00,
2013-05-25 12:13:00,70.8,13.6,22.60,West,268,7.0,21.0,11,0.00,,,0.00,Wunderground v.1.15,2013-05-25 18:13:00,
2013-05-25 12:15:00,71.1,11.7,22.60,SSE,167,7.0,21.0,10,0.00,,,0.00,Wunderground v.1.15,2013-05-25 18:15:00,
2013-05-25 12:17:00,71.3,11.8,22.60,WSW,249,7.0,21.0,10,0.00,,,0.00,Wunderground v.1.15,2013-05-25 18:17:00,
2013-05-25 12:21:00,71.1,11.7,22.60,WSW,246,8.0,21.0,10,0.00,,,0.00,Wunderground v.1.15,2013-05-25 18:21:00,
2013-05-25 12:23:00,70.8,11.5,22.60,WSW,249,7.0,7.0,10,0.00,,,0.00,Wunderground v.1.15,2013-05-25 18:23:00,
2013-05-25 12:28:00,71.2,13.9,22.59,NW,319,7.0,21.0,11,0.00,,,0.00,Wunderground v.1.15,2013-05-25 18:28:00,
2013-05-25 12:32:00,71.8,14.4,22.59,NW,306,6.0,6.0,11,0.00,,,0.00,Wunderground v.1.15,2013-05-25 18:32:00,
2013-05-25 12:34:00,72.4,14.9,22.59,SW,231,6.0,7.0,11,0.00,,,0.00,Wunderground v.1.15,2013-05-25 18:34:00,
2013-05-25 12:39:00,72.2,10.2,22.59,WSW,247,5.0,21.0,9,0.00,,,0.00,Wunderground v.1.15,2013-05-25 18:39:00,
2013-05-25 12:43:00,72.1,12.5,22.59,WSW,257,5.0,5.0,10,0.00,,,0.00,Wunderground v.1.15,2013-05-25 18:43:00,
2013-05-25 12:45:00,71.8,12.2,22.59,SW,236,5.0,8.0,10,0.00,,,0.00,Wunderground v.1.15,2013-05-25 18:45:00,
2013-05-25 12:46:00,71.2,11.8,22.59,WSW,252,6.0,21.0,10,0.00,,,0.00,Wunderground v.1.15,2013-05-25 18:46:00,
2013-05-25 12:48:00,70.9,11.5,22.59,SW,233,7.0,21.0,10,0.00,,,0.00,Wunderground v.1.15,2013-05-25 18:48:00,
2013-05-25 12:52:00,70.5,13.4,22.59,WSW,239,7.0,7.0,11,0.00,,,0.00,Wunderground v.1.15,2013-05-25 18:52:00,
2013-05-25 12:54:00,70.6,13.5,22.59,South,177,7.0,21.0,11,0.00,,,0.00,Wunderground v.1.15,2013-05-25 18:54:00,
2013-05-25 12:56:00,70.7,31.1,22.59,ESE,113,6.0,21.0,23,0.00,,,0.00,Wunderground v.1.15,2013-05-25 18:56:00,
2013-05-25 12:58:00,71.0,30.2,22.59,SSW,204,4.0,21.0,22,0.00,,,0.00,Wunderground v.1.15,2013-05-25 18:58:00,
2013-05-25 13:00:00,71.1,24.0,22.59,South,174,3.0,21.0,17,0.00,,,0.00,Wunderground v.1.15,2013-05-25 19:00:00,
2013-05-25 13:02:00,71.4,19.7,22.59,SW,229,2.0,21.0,14,0.00,,,0.00,Wunderground v.1.15,2013-05-25 19:02:00,
2013-05-25 13:05:00,71.4,17.9,22.59,WSW,240,2.0,21.0,13,0.00,,,0.00,Wunderground v.1.15,2013-05-25 19:05:00,
2013-05-25 13:07:00,71.2,11.8,22.59,SSW,205,3.0,21.0,10,0.00,,,0.00,Wunderground v.1.15,2013-05-25 19:07:00,
2013-05-25 13:12:00,70.8,11.5,22.59,West,264,5.0,5.0,10,0.00,,,0.00,Wunderground v.1.15,2013-05-25 19:12:00,
2013-05-25 13:14:00,70.8,15.6,22.58,West,259,5.0,6.0,12,0.00,,,0.00,Wunderground v.1.15,2013-05-25 19:14:00,
2013-05-25 13:16:00,70.9,19.3,22.59,West,262,5.0,21.0,14,0.00,,,0.00,Wunderground v.1.15,2013-05-25 19:16:00,
2013-05-25 13:20:00,70.8,11.5,22.59,WSW,243,5.0,21.0,10,0.00,,,0.00,Wunderground v.1.15,2013-05-25 19:20:00,
2013-05-25 13:22:00,70.6,13.5,22.59,SSW,193,5.0,21.0,11,0.00,,,0.00,Wunderground v.1.15,2013-05-25 19:22:00,
2013-05-25 13:24:00,70.4,13.3,22.59,SW,226,6.0,21.0,11,0.00,,,0.00,Wunderground v.1.15,2013-05-25 19:24:00,
2013-05-25 13:29:00,70.9,22.4,22.58,SSW,203,5.0,21.0,16,0.00,,,0.00,Wunderground v.1.15,2013-05-25 19:29:00,
2013-05-25 13:33:00,71.2,19.5,22.58,ESE,113,4.0,21.0,14,0.00,,,0.00,Wunderground v.1.15,2013-05-25 19:33:00,
2013-05-25 13:34:00,71.1,25.4,22.58,SE,135,4.0,21.0,18,0.00,,,0.00,Wunderground v.1.15,2013-05-25 19:34:00,
2013-05-25 13:38:00,71.7,25.9,22.58,SSE,158,4.0,21.0,18,0.00,,,0.00,Wunderground v.1.15,2013-05-25 19:38:00,
2013-05-25 13:40:00,71.8,24.6,22.58,East,79,4.0,21.0,17,0.00,,,0.00,Wunderground v.1.15,2013-05-25 19:40:00,
2013-05-25 13:44:00,71.7,28.5,22.58,ESE,102,3.0,21.0,20,0.00,,,0.00,Wunderground v.1.15,2013-05-25 19:44:00,
2013-05-25 13:46:00,72.3,29.0,22.58,East,98,3.0,21.0,20,0.00,,,0.00,Wunderground v.1.15,2013-05-25 19:46:00,
2013-05-25 13:51:00,72.9,28.2,22.58,NNE,27,4.0,21.0,19,0.00,,,0.00,Wunderground v.1.15,2013-05-25 19:51:00,
2013-05-25 13:53:00,72.9,28.2,22.58,ESE,119,4.0,4.0,19,0.00,,,0.00,Wunderground v.1.15,2013-05-25 19:53:00,
2013-05-25 13:55:00,73.2,29.7,22.58,East,84,4.0,21.0,20,0.00,,,0.00,Wunderground v.1.15,2013-05-25 19:55:00,
2013-05-25 14:00:00,72.9,28.2,22.58,SW,233,3.0,21.0,19,0.00,,,0.00,Wunderground v.1.15,2013-05-25 20:00:00,
2013-05-25 14:02:00,72.8,29.4,22.58,South,187,3.0,3.0,20,0.00,,,0.00,Wunderground v.1.15,2013-05-25 20:02:00,
2013-05-25 14:04:00,72.7,26.7,22.58,SE,143,3.0,21.0,18,0.00,,,0.00,Wunderground v.1.15,2013-05-25 20:04:00,
2013-05-25 14:06:00,72.7,28.0,22.58,SSW,205,3.0,21.0,19,0.00,,,0.00,Wunderground v.1.15,2013-05-25 20:06:00,
2013-05-25 14:08:00,72.7,28.0,22.58,SSW,202,3.0,21.0,19,0.00,,,0.00,Wunderground v.1.15,2013-05-25 20:08:00,
2013-05-25 14:10:00,72.6,30.4,22.58,SW,223,3.0,21.0,21,0.00,,,0.00,Wunderground v.1.15,2013-05-25 20:10:00,
2013-05-25 14:13:00,72.6,29.2,22.58,SSW,207,3.0,21.0,20,0.00,,,0.00,Wunderground v.1.15,2013-05-25 20:13:00,
2013-05-25 14:17:00,72.3,29.0,22.58,South,176,4.0,21.0,20,0.00,,,0.00,Wunderground v.1.15,2013-05-25 20:17:00,
2013-05-25 14:19:00,72.3,29.0,22.58,SSE,162,5.0,21.0,20,0.00,,,0.00,Wunderground v.1.15,2013-05-25 20:19:00,
2013-05-25 14:20:00,72.3,27.7,22.58,SW,214,5.0,21.0,19,0.00,,,0.00,Wunderground v.1.15,2013-05-25 20:20:00,
2013-05-25 14:22:00,72.0,27.5,22.58,SW,217,5.0,21.0,19,0.00,,,0.00,Wunderground v.1.15,2013-05-25 20:22:00,
2013-05-25 14:26:00,71.7,28.5,22.58,SE,141,4.0,21.0,20,0.00,,,0.00,Wunderground v.1.15,2013-05-25 20:26:00,
2013-05-25 14:28:00,71.9,34.1,22.58,South,171,5.0,21.0,25,0.00,,,0.00,Wunderground v.1.15,2013-05-25 20:28:00,
2013-05-25 14:32:00,72.3,29.0,22.58,SSE,159,4.0,4.0,20,0.00,,,0.00,Wunderground v.1.15,2013-05-25 20:32:00,
2013-05-25 14:34:00,72.7,29.3,22.58,South,183,3.0,21.0,20,0.00,,,0.00,Wunderground v.1.15,2013-05-25 20:34:00,
2013-05-25 14:36:00,73.1,27.0,22.58,SSE,153,3.0,21.0,18,0.00,,,0.00,Wunderground v.1.15,2013-05-25 20:36:00,
2013-05-25 14:43:00,72.8,26.8,22.58,SE,131,4.0,4.0,18,0.00,,,0.00,Wunderground v.1.15,2013-05-25 20:43:00,
2013-05-25 14:45:00,73.0,25.6,22.58,SE,141,4.0,21.0,17,0.00,,,0.00,Wunderground v.1.15,2013-05-25 20:45:00,
2013-05-25 14:50:00,73.3,28.5,22.58,SE,131,3.0,21.0,19,0.00,,,0.00,Wunderground v.1.15,2013-05-25 20:50:00,
2013-05-25 14:52:00,73.4,27.3,22.58,SSW,210,2.0,2.0,18,0.00,,,0.00,Wunderground v.1.15,2013-05-25 20:52:00,
2013-05-25 14:56:00,73.5,26.0,22.58,ENE,64,2.0,21.0,17,0.00,,,0.00,Wunderground v.1.15,2013-05-25 20:56:00,
2013-05-25 14:58:00,73.1,27.0,22.58,South,179,2.0,21.0,18,0.00,,,0.00,Wunderground v.1.15,2013-05-25 20:58:00,
2013-05-25 15:00:00,73.2,28.4,22.58,ESE,113,2.0,21.0,19,0.00,,,0.00,Wunderground v.1.15,2013-05-25 21:00:00,
2013-05-25 15:02:00,73.4,28.6,22.58,South,176,3.0,21.0,19,0.00,,,0.00,Wunderground v.1.15,2013-05-25 21:02:00,
2013-05-25 15:05:00,73.6,31.2,22.58,South,171,3.0,21.0,21,0.00,,,0.00,Wunderground v.1.15,2013-05-25 21:05:00,
2013-05-25 15:09:00,73.7,32.5,22.58,South,184,3.0,21.0,22,0.00,,,0.00,Wunderground v.1.15,2013-05-25 21:09:00,
2013-05-25 15:11:00,73.8,30.2,22.58,ENE,67,4.0,21.0,20,0.00,,,0.00,Wunderground v.1.15,2013-05-25 21:11:00,
2013-05-25 15:13:00,73.5,31.1,22.58,SSW,193,4.0,4.0,21,0.00,,,0.00,Wunderground v.1.15,2013-05-25 21:13:00,
2013-05-25 15:16:00,73.2,33.2,22.58,ENE,63,5.0,21.0,23,0.00,,,0.00,Wunderground v.1.15,2013-05-25 21:16:00,
2013-05-25 15:18:00,73.5,36.5,22.58,East,85,5.0,21.0,26,0.00,,,0.00,Wunderground v.1.15,2013-05-25 21:18:00,
2013-05-25 15:20:00,73.8,33.7,22.58,ENE,63,5.0,21.0,23,0.00,,,0.00,Wunderground v.1.15,2013-05-25 21:20:00,
2013-05-25 15:26:00,73.2,34.2,22.58,ESE,117,5.0,21.0,24,0.00,,,0.00,Wunderground v.1.15,2013-05-25 21:26:00,
2013-05-25 15:28:00,73.4,35.4,22.57,SSE,155,5.0,21.0,25,0.00,,,0.00,Wunderground v.1.15,2013-05-25 21:28:00,
2013-05-25 15:33:00,73.4,28.6,22.57,West,274,5.0,5.0,19,0.00,,,0.00,Wunderground v.1.15,2013-05-25 21:33:00,
2013-05-25 15:35:00,73.6,23.1,22.57,South,174,5.0,21.0,15,0.00,,,0.00,Wunderground v.1.15,2013-05-25 21:35:00,
2013-05-25 15:37:00,73.7,32.5,22.57,SSE,162,5.0,21.0,22,0.00,,,0.00,Wunderground v.1.15,2013-05-25 21:37:00,
2013-05-25 15:39:00,73.6,31.2,22.58,SSE,149,6.0,21.0,21,0.00,,,0.00,Wunderground v.1.15,2013-05-25 21:39:00,
2013-05-25 15:42:00,74.2,14.1,22.57,SW,219,5.0,5.0,10,0.00,,,0.00,Wunderground v.1.15,2013-05-25 21:42:00,
2013-05-25 15:44:00,74.4,18.4,22.57,SSW,195,5.0,21.0,12,0.00,,,0.00,Wunderground v.1.15,2013-05-25 21:44:00,
2013-05-25 15:48:00,74.1,11.6,22.57,SW,231,5.0,21.0,9,0.00,,,0.00,Wunderground v.1.15,2013-05-25 21:48:00,
2013-05-25 15:55:00,73.7,13.7,22.57,SSW,205,6.0,21.0,10,0.00,,,0.00,Wunderground v.1.15,2013-05-25 21:55:00,
2013-05-25 15:57:00,74.0,13.9,22.57,SSW,205,6.0,21.0,10,0.00,,,0.00,Wunderground v.1.15,2013-05-25 21:57:00,
2013-05-25 16:01:00,74.1,9.0,22.57,South,171,5.0,21.0,8,0.00,,,0.00,Wunderground v.1.15,2013-05-25 22:01:00,
2013-05-25 16:03:00,74.1,14.0,22.57,SSE,165,5.0,21.0,10,0.00,,,0.00,Wunderground v.1.15,2013-05-25 22:03:00,
2013-05-25 16:06:00,74.0,16.1,22.57,SW,217,7.0,21.0,11,0.00,,,0.00,Wunderground v.1.15,2013-05-25 22:06:00,
2013-05-25 16:10:00,73.4,13.5,22.57,SW,236,7.0,21.0,10,0.00,,,0.00,Wunderground v.1.15,2013-05-25 22:10:00,
2013-05-25 16:14:00,73.4,11.1,22.57,West,263,7.0,21.0,9,0.00,,,0.00,Wunderground v.1.15,2013-05-25 22:14:00,
2013-05-25 16:17:00,73.6,15.8,22.57,South,187,7.0,21.0,11,0.00,,,0.00,Wunderground v.1.15,2013-05-25 22:17:00,
2013-05-25 16:19:00,73.7,11.3,22.57,SE,143,7.0,21.0,9,0.00,,,0.00,Wunderground v.1.15,2013-05-25 22:19:00,
2013-05-25 16:21:00,73.9,13.8,22.57,SSW,203,6.0,21.0,10,0.00,,,0.00,Wunderground v.1.15,2013-05-25 22:21:00,
2013-05-25 16:27:00,73.7,11.3,22.56,SW,216,5.0,21.0,9,0.00,,,0.00,Wunderground v.1.15,2013-05-25 22:27:00,
2013-05-25 16:28:00,73.7,11.3,22.57,SSW,207,6.0,21.0,9,0.00,,,0.00,Wunderground v.1.15,2013-05-25 22:28:00,
2013-05-25 16:30:00,73.7,11.3,22.57,SSE,162,6.0,21.0,9,0.00,,,0.00,Wunderground v.1.15,2013-05-25 22:30:00,
2013-05-25 16:32:00,73.7,11.3,22.57,SSW,205,6.0,6.0,9,0.00,,,0.00,Wunderground v.1.15,2013-05-25 22:32:00,
2013-05-25 16:34:00,73.8,13.8,22.56,SSW,200,6.0,21.0,10,0.00,,,0.00,Wunderground v.1.15,2013-05-25 22:34:00,
2013-05-25 16:38:00,73.6,13.6,22.56,SE,135,5.0,21.0,10,0.00,,,0.00,Wunderground v.1.15,2013-05-25 22:38:00,
2013-05-25 16:40:00,73.5,11.1,22.56,SSW,195,5.0,21.0,9,0.00,,,0.00,Wunderground v.1.15,2013-05-25 22:40:00,
2013-05-25 16:45:00,73.3,11.0,22.56,SSW,212,5.0,21.0,9,0.00,,,0.00,Wunderground v.1.15,2013-05-25 22:45:00,
2013-05-25 16:47:00,73.3,11.0,22.56,SSE,149,5.0,21.0,9,0.00,,,0.00,Wunderground v.1.15,2013-05-25 22:47:00,
2013-05-25 16:51:00,73.9,11.4,22.56,WSW,252,4.0,21.0,9,0.00,,,0.00,Wunderground v.1.15,2013-05-25 22:51:00,
2013-05-25 16:53:00,73.9,19.9,22.56,SSW,208,3.0,3.0,13,0.00,,,0.00,Wunderground v.1.15,2013-05-25 22:53:00,
2013-05-25 16:54:00,74.0,11.5,22.56,SSW,200,3.0,4.0,9,0.00,,,0.00,Wunderground v.1.15,2013-05-25 22:54:00,
2013-05-25 16:56:00,74.0,11.5,22.55,NNW,343,3.0,21.0,9,0.00,,,0.00,Wunderground v.1.15,2013-05-25 22:56:00,
2013-05-25 16:58:00,74.1,14.0,22.56,SW,229,3.0,21.0,10,0.00,,,0.00,Wunderground v.1.15,2013-05-25 22:58:00,
2013-05-25 17:00:00,73.9,13.8,22.55,WSW,245,4.0,21.0,10,0.00,,,0.00,Wunderground v.1.15,2013-05-25 23:00:00,
2013-05-25 17:02:00,73.9,13.8,22.56,SW,233,4.0,21.0,10,0.00,,,0.00,Wunderground v.1.15,2013-05-25 23:02:00,
2013-05-25 17:04:00,73.5,11.1,22.56,South,180,5.0,21.0,9,0.00,,,0.00,Wunderground v.1.15,2013-05-25 23:04:00,
2013-05-25 17:06:00,73.3,8.4,22.56,SW,225,6.0,21.0,8,0.00,,,0.00,Wunderground v.1.15,2013-05-25 23:06:00,
2013-05-25 17:09:00,73.0,13.1,22.56,WSW,249,6.0,21.0,10,0.00,,,0.00,Wunderground v.1.15,2013-05-25 23:09:00,
2013-05-25 17:11:00,73.0,8.1,22.56,WSW,245,5.0,21.0,8,0.00,,,0.00,Wunderground v.1.15,2013-05-25 23:11:00,
2013-05-25 17:13:00,73.1,10.8,22.56,SW,217,6.0,6.0,9,0.00,,,0.00,Wunderground v.1.15,2013-05-25 23:13:00,
2013-05-25 17:16:00,73.5,11.1,22.55,SW,222,4.0,21.0,9,0.00,,,0.00,Wunderground v.1.15,2013-05-25 23:16:00,
2013-05-25 17:20:00,73.7,13.7,22.55,South,172,4.0,21.0,10,0.00,,,0.00,Wunderground v.1.15,2013-05-25 23:20:00,
2013-05-25 17:22:00,73.4,11.1,22.55,SW,226,4.0,21.0,9,0.00,,,0.00,Wunderground v.1.15,2013-05-25 23:22:00,
2013-05-25 17:24:00,73.2,10.9,22.55,WSW,249,5.0,21.0,9,0.00,,,0.00,Wunderground v.1.15,2013-05-25 23:24:00,
2013-05-25 17:29:00,73.5,11.1,22.55,WSW,245,6.0,21.0,9,0.00,,,0.00,Wunderground v.1.15,2013-05-25 23:29:00,
2013-05-25 17:31:00,73.7,15.9,22.55,WNW,295,5.0,21.0,11,0.00,,,0.00,Wunderground v.1.15,2013-05-25 23:31:00,
2013-05-25 17:35:00,74.0,11.5,22.55,SW,236,4.0,21.0,9,0.00,,,0.00,Wunderground v.1.15,2013-05-25 23:35:00,
2013-05-25 17:37:00,74.1,11.6,22.55,SW,233,3.0,21.0,9,0.00,,,0.00,Wunderground v.1.15,2013-05-25 23:37:00,
2013-05-25 17:41:00,73.7,11.3,22.55,WSW,242,4.0,21.0,9,0.00,,,0.00,Wunderground v.1.15,2013-05-25 23:41:00,
2013-05-25 17:42:00,73.5,11.1,22.55,SW,232,4.0,4.0,9,0.00,,,0.00,Wunderground v.1.15,2013-05-25 23:42:00,
2013-05-25 17:44:00,73.4,11.1,22.55,WSW,253,5.0,8.0,9,0.00,,,0.00,Wunderground v.1.15,2013-05-25 23:44:00,
2013-05-25 17:46:00,73.1,10.8,22.55,WSW,258,6.0,21.0,9,0.00,,,0.00,Wunderground v.1.15,2013-05-25 23:46:00,
2013-05-25 17:50:00,72.9,8.1,22.55,West,262,6.0,21.0,8,0.00,,,0.00,Wunderground v.1.15,2013-05-25 23:50:00,
2013-05-25 17:52:00,73.2,10.9,22.55,WNW,295,5.0,5.0,9,0.00,,,0.00,Wunderground v.1.15,2013-05-25 23:52:00,
2013-05-25 17:55:00,73.4,13.5,22.55,WSW,257,4.0,21.0,10,0.00,,,0.00,Wunderground v.1.15,2013-05-25 23:55:00,
2013-05-25 17:56:00,73.7,11.3,22.55,SW,231,3.0,21.0,9,0.00,,,0.00,Wunderground v.1.15,2013-05-25 23:56:00,
2013-05-25 18:00:00,73.9,13.8,22.55,SW,233,2.0,21.0,10,0.00,,,0.00,Wunderground v.1.15,2013-05-26 00:00:00,
2013-05-25 18:02:00,73.6,13.6,22.55,WSW,240,3.0,21.0,10,0.00,,,0.00,Wunderground v.1.15,2013-05-26 00:02:00,
2013-05-25 18:04:00,73.3,15.6,22.55,WSW,249,2.0,21.0,11,0.00,,,0.00,Wunderground v.1.15,2013-05-26 00:04:00,
2013-05-25 18:06:00,73.1,15.4,22.55,SW,236,3.0,21.0,11,0.00,,,0.00,Wunderground v.1.15,2013-05-26 00:06:00,
2013-05-25 18:11:00,72.7,7.9,22.54,SW,225,3.0,21.0,8,0.00,,,0.00,Wunderground v.1.15,2013-05-26 00:11:00,
2013-05-25 18:13:00,72.7,12.9,22.54,SW,214,3.0,3.0,10,0.00,,,0.00,Wunderground v.1.15,2013-05-26 00:13:00,
2013-05-25 18:16:00,72.2,12.5,22.55,WSW,256,3.0,21.0,10,0.00,,,0.00,Wunderground v.1.15,2013-05-26 00:16:00,
2013-05-25 18:18:00,71.9,9.9,22.55,WSW,238,3.0,21.0,9,0.00,,,0.00,Wunderground v.1.15,2013-05-26 00:18:00,
2013-05-25 18:20:00,71.7,12.2,22.54,WSW,256,4.0,21.0,10,0.00,,,0.00,Wunderground v.1.15,2013-05-26 00:20:00,
2013-05-25 18:22:00,71.5,9.6,22.54,SW,233,5.0,5.0,9,0.00,,,0.00,Wunderground v.1.15,2013-05-26 00:22:00,
2013-05-25 18:26:00,71.3,11.8,22.55,SSW,208,4.0,21.0,10,0.00,,,0.00,Wunderground v.1.15,2013-05-26 00:26:00,
2013-05-25 18:29:00,71.3,11.8,22.55,WSW,251,4.0,21.0,10,0.00,,,0.00,Wunderground v.1.15,2013-05-26 00:29:00,
2013-05-25 18:31:00,71.4,14.1,22.55,SW,216,4.0,21.0,11,0.00,,,0.00,Wunderground v.1.15,2013-05-26 00:31:00,
2013-05-25 18:33:00,71.5,12.0,22.55,WSW,245,4.0,4.0,10,0.00,,,0.00,Wunderground v.1.15,2013-05-26 00:33:00,
2013-05-25 18:35:00,71.5,12.0,22.55,West,270,4.0,21.0,10,0.00,,,0.00,Wunderground v.1.15,2013-05-26 00:35:00,
2013-05-25 18:37:00,71.5,12.0,22.54,SW,219,3.0,21.0,10,0.00,,,0.00,Wunderground v.1.15,2013-05-26 00:37:00,
2013-05-25 18:39:00,71.5,12.0,22.54,SSE,155,3.0,21.0,10,0.00,,,0.00,Wunderground v.1.15,2013-05-26 00:39:00,
2013-05-25 18:41:00,71.6,16.2,22.54,SSW,208,3.0,21.0,12,0.00,,,0.00,Wunderground v.1.15,2013-05-26 00:41:00,
2013-05-25 18:44:00,71.4,11.9,22.54,SSW,204,4.0,21.0,10,0.00,,,0.00,Wunderground v.1.15,2013-05-26 00:44:00,
2013-05-25 18:46:00,71.3,11.8,22.54,SSW,207,5.0,21.0,10,0.00,,,0.00,Wunderground v.1.15,2013-05-26 00:46:00,
2013-05-25 18:48:00,71.2,9.4,22.54,SW,231,5.0,21.0,9,0.00,,,0.00,Wunderground v.1.15,2013-05-26 00:48:00,
2013-05-25 18:52:00,71.1,11.7,22.55,SSW,201,5.0,5.0,10,0.00,,,0.00,Wunderground v.1.15,2013-05-26 00:52:00,
2013-05-25 18:57:00,71.2,19.5,22.55,South,187,4.0,21.0,14,0.00,,,0.00,Wunderground v.1.15,2013-05-26 00:57:00,
2013-05-25 18:59:00,71.2,17.8,22.55,South,174,3.0,21.0,13,0.00,,,0.00,Wunderground v.1.15,2013-05-26 00:59:00,
2013-05-25 19:01:00,71.1,13.9,22.55,SW,219,3.0,21.0,11,0.00,,,0.00,Wunderground v.1.15,2013-05-26 01:01:00,
2013-05-25 19:07:00,70.9,23.9,22.55,SSE,160,2.0,21.0,17,0.00,,,0.00,Wunderground v.1.15,2013-05-26 01:07:00,
2013-05-25 19:08:00,70.7,25.1,22.55,SE,141,2.0,21.0,18,0.00,,,0.00,Wunderground v.1.15,2013-05-26 01:08:00,
2013-05-25 19:11:00,70.5,24.9,22.55,SE,141,2.0,21.0,18,0.00,,,0.00,Wunderground v.1.15,2013-05-26 01:11:00,
2013-05-25 19:12:00,70.3,27.3,22.55,WSW,238,2.0,21.0,20,0.00,,,0.00,Wunderground v.1.15,2013-05-26 01:12:00,
2013-05-25 19:16:00,69.9,27.0,22.55,SW,224,3.0,21.0,20,0.00,,,0.00,Wunderground v.1.15,2013-05-26 01:16:00,
2013-05-25 19:18:00,69.8,29.2,22.55,SSE,153,3.0,21.0,22,0.00,,,0.00,Wunderground v.1.15,2013-05-26 01:18:00,
2013-05-25 19:20:00,69.6,29.0,22.55,SSE,150,3.0,21.0,22,0.00,,,0.00,Wunderground v.1.15,2013-05-26 01:20:00,
2013-05-25 19:25:00,69.1,29.7,22.55,South,169,3.0,21.0,23,0.00,,,0.00,Wunderground v.1.15,2013-05-26 01:25:00,
2013-05-25 19:27:00,68.9,29.5,22.55,South,183,3.0,21.0,23,0.00,,,0.00,Wunderground v.1.15,2013-05-26 01:27:00,
2013-05-25 19:29:00,68.7,30.4,22.55,East,92,3.0,21.0,24,0.00,,,0.00,Wunderground v.1.15,2013-05-26 01:29:00,
2013-05-25 19:34:00,68.2,30.0,22.55,SSE,166,3.0,21.0,24,0.00,,,0.00,Wunderground v.1.15,2013-05-26 01:34:00,
2013-05-25 19:36:00,68.1,29.9,22.55,SSW,193,3.0,21.0,24,0.00,,,0.00,Wunderground v.1.15,2013-05-26 01:36:00,
2013-05-25 19:40:00,67.8,30.7,22.56,SSE,158,3.0,21.0,25,0.00,,,0.00,Wunderground v.1.15,2013-05-26 01:40:00,
2013-05-25 19:42:00,67.6,30.5,22.55,SSE,151,2.0,2.0,25,0.00,,,0.00,Wunderground v.1.15,2013-05-26 01:42:00,
2013-05-25 19:49:00,67.0,31.9,22.56,SSW,209,2.0,21.0,27,0.00,,,0.00,Wunderground v.1.15,2013-05-26 01:49:00,
2013-05-25 19:51:00,66.8,30.8,22.56,SW,224,2.0,21.0,26,0.00,,,0.00,Wunderground v.1.15,2013-05-26 01:51:00,
2013-05-25 19:53:00,66.7,31.6,22.56,WSW,253,2.0,21.0,27,0.00,,,0.00,Wunderground v.1.15,2013-05-26 01:53:00,
2013-05-25 19:55:00,66.6,30.6,22.56,South,189,2.0,21.0,26,0.00,,,0.00,Wunderground v.1.15,2013-05-26 01:55:00,
2013-05-25 19:58:00,66.6,31.5,22.56,SSW,207,2.0,21.0,27,0.00,,,0.00,Wunderground v.1.15,2013-05-26 01:58:00,
2013-05-25 20:00:00,66.5,31.5,22.56,West,262,2.0,21.0,27,0.00,,,0.00,Wunderground v.1.15,2013-05-26 02:00:00,
2013-05-25 20:04:00,66.5,32.4,22.56,SW,225,2.0,21.0,28,0.00,,,0.00,Wunderground v.1.15,2013-05-26 02:04:00,
2013-05-25 20:06:00,66.1,32.0,22.56,West,267,2.0,21.0,28,0.00,,,0.00,Wunderground v.1.15,2013-05-26 02:06:00,
2013-05-25 20:08:00,65.8,31.8,22.56,West,260,3.0,21.0,28,0.00,,,0.00,Wunderground v.1.15,2013-05-26 02:08:00,
2013-05-25 20:10:00,65.5,31.5,22.56,West,281,3.0,21.0,28,0.00,,,0.00,Wunderground v.1.15,2013-05-26 02:10:00,
2013-05-25 20:13:00,65.1,32.9,22.56,WNW,291,2.0,2.0,30,0.00,,,0.00,Wunderground v.1.15,2013-05-26 02:13:00,
2013-05-25 20:15:00,64.7,31.7,22.56,West,259,2.0,21.0,29,0.00,,,0.00,Wunderground v.1.15,2013-05-26 02:15:00,
2013-05-25 20:19:00,64.1,30.3,22.56,NNE,22,1.0,21.0,28,0.00,,,0.00,Wunderground v.1.15,2013-05-26 02:19:00,
2013-05-25 20:21:00,63.9,31.8,22.56,West,273,1.0,21.0,30,0.00,,,0.00,Wunderground v.1.15,2013-05-26 02:21:00,
2013-05-25 20:24:00,63.3,25.9,22.56,WSW,249,1.0,21.0,24,0.00,,,0.00,Wunderground v.1.15,2013-05-26 02:24:00,
2013-05-25 20:26:00,63.1,26.7,22.56,SW,229,1.0,21.0,25,0.00,,,0.00,Wunderground v.1.15,2013-05-26 02:26:00,
2013-05-25 20:28:00,62.8,24.4,22.57,SSW,207,1.0,21.0,23,0.00,,,0.00,Wunderground v.1.15,2013-05-26 02:28:00,
2013-05-25 20:34:00,62.8,21.1,22.57,WSW,238,1.0,21.0,20,0.00,,,0.00,Wunderground v.1.15,2013-05-26 02:34:00,
2013-05-25 20:39:00,62.5,22.0,22.57,SW,236,1.0,21.0,21,0.00,,,0.00,Wunderground v.1.15,2013-05-26 02:39:00,
2013-05-25 20:41:00,62.2,20.6,22.57,SE,146,1.0,21.0,20,0.00,,,0.00,Wunderground v.1.15,2013-05-26 02:41:00,
2013-05-25 20:43:00,62.0,22.7,22.57,South,174,1.0,1.0,22,0.00,,,0.00,Wunderground v.1.15,2013-05-26 02:43:00,
2013-05-25 20:46:00,61.4,25.2,22.57,South,174,0.0,21.0,25,0.00,,,0.00,Wunderground v.1.15,2013-05-26 02:46:00,
2013-05-25 20:50:00,60.6,23.6,22.57,South,174,0.0,21.0,24,0.00,,,0.00,Wunderground v.1.15,2013-05-26 02:50:00,
2013-05-25 20:52:00,60.1,25.1,22.57,South,174,0.0,21.0,26,0.00,,,0.00,Wunderground v.1.15,2013-05-26 02:52:00,
2013-05-25 20:54:00,59.8,24.8,22.57,South,174,0.0,21.0,26,0.00,,,0.00,Wunderground v.1.15,2013-05-26 02:54:00,
2013-05-25 20:59:00,59.0,23.2,22.57,West,259,0.0,21.0,25,0.00,,,0.00,Wunderground v.1.15,2013-05-26 02:59:00,
2013-05-25 21:01:00,58.8,23.9,22.57,West,259,0.0,21.0,26,0.00,,,0.00,Wunderground v.1.15,2013-05-26 03:01:00,
2013-05-25 21:03:00,58.6,25.6,22.57,WSW,258,0.0,21.0,28,0.00,,,0.00,Wunderground v.1.15,2013-05-26 03:03:00,
2013-05-25 21:05:00,58.3,26.1,22.57,West,259,0.0,21.0,29,0.00,,,0.00,Wunderground v.1.15,2013-05-26 03:05:00,
2013-05-25 21:09:00,58.0,25.0,22.58,West,259,0.0,21.0,28,0.00,,,0.00,Wunderground v.1.15,2013-05-26 03:09:00,
2013-05-25 21:11:00,57.8,24.0,22.58,West,259,0.0,21.0,27,0.00,,,0.00,Wunderground v.1.15,2013-05-26 03:11:00,
2013-05-25 21:12:00,57.7,24.8,22.58,West,262,0.0,21.0,28,0.00,,,0.00,Wunderground v.1.15,2013-05-26 03:12:00,
2013-05-25 21:16:00,57.3,23.6,22.58,WSW,254,0.0,21.0,27,0.00,,,0.00,Wunderground v.1.15,2013-05-26 03:16:00,
2013-05-25 21:18:00,57.1,22.5,22.58,WSW,255,0.0,21.0,26,0.00,,,0.00,Wunderground v.1.15,2013-05-26 03:18:00,
2013-05-25 21:20:00,57.0,23.3,22.58,WSW,255,0.0,21.0,27,0.00,,,0.00,Wunderground v.1.15,2013-05-26 03:20:00,
2013-05-25 21:22:00,56.8,23.1,22.58,WSW,255,0.0,21.0,27,0.00,,,0.00,Wunderground v.1.15,2013-05-26 03:22:00,
2013-05-25 21:25:00,56.5,23.7,22.58,WSW,255,0.0,21.0,28,0.00,,,0.00,Wunderground v.1.15,2013-05-26 03:25:00,
2013-05-25 21:29:00,56.2,23.5,22.58,WSW,254,0.0,21.0,28,0.00,,,0.00,Wunderground v.1.15,2013-05-26 03:29:00,
2013-05-25 21:31:00,56.0,23.3,22.58,WSW,255,0.0,21.0,28,0.00,,,0.00,Wunderground v.1.15,2013-05-26 03:31:00,
2013-05-25 21:32:00,55.9,24.9,22.58,WSW,255,0.0,21.0,30,0.00,,,0.00,Wunderground v.1.15,2013-05-26 03:32:00,
2013-05-25 21:36:00,55.6,26.2,22.58,WSW,255,0.0,21.0,32,0.00,,,0.00,Wunderground v.1.15,2013-05-26 03:36:00,
2013-05-25 21:38:00,55.4,26.0,22.58,WSW,256,0.0,21.0,32,0.00,,,0.00,Wunderground v.1.15,2013-05-26 03:38:00,
2013-05-25 21:40:00,55.3,27.4,22.58,WSW,256,0.0,21.0,34,0.00,,,0.00,Wunderground v.1.15,2013-05-26 03:40:00,
2013-05-25 21:42:00,55.2,26.6,22.58,WSW,256,1.0,1.0,33,0.00,,,0.00,Wunderground v.1.15,2013-05-26 03:42:00,
2013-05-25 21:47:00,55.0,27.8,22.58,WSW,256,1.0,21.0,35,0.00,,,0.00,Wunderground v.1.15,2013-05-26 03:47:00,
2013-05-25 21:48:00,54.9,27.0,22.58,NW,314,1.0,21.0,34,0.00,,,0.00,Wunderground v.1.15,2013-05-26 03:48:00,
2013-05-25 21:53:00,54.9,28.4,22.58,NNW,336,1.0,21.0,36,0.00,,,0.00,Wunderground v.1.15,2013-05-26 03:53:00,
2013-05-25 21:55:00,54.9,28.4,22.59,WSW,256,1.0,21.0,36,0.00,,,0.00,Wunderground v.1.15,2013-05-26 03:55:00,
2013-05-25 21:58:00,54.4,26.6,22.58,WSW,256,1.0,21.0,34,0.00,,,0.00,Wunderground v.1.15,2013-05-26 03:58:00,
2013-05-25 22:02:00,54.1,27.0,22.58,WSW,256,1.0,1.0,35,0.00,,,0.00,Wunderground v.1.15,2013-05-26 04:02:00,
2013-05-25 22:04:00,54.0,26.2,22.58,West,273,1.0,21.0,34,0.00,,,0.00,Wunderground v.1.15,2013-05-26 04:04:00,
2013-05-25 22:10:00,53.6,26.6,22.58,NNE,16,0.0,21.0,35,0.00,,,0.00,Wunderground v.1.15,2013-05-26 04:10:00,
2013-05-25 22:13:00,53.4,27.8,22.59,North,4,0.0,21.0,37,0.00,,,0.00,Wunderground v.1.15,2013-05-26 04:13:00,
2013-05-25 22:17:00,53.1,27.5,22.59,NNW,346,1.0,21.0,37,0.00,,,0.00,Wunderground v.1.15,2013-05-26 04:17:00,
2013-05-25 22:19:00,52.9,26.6,22.59,NE,54,1.0,21.0,36,0.00,,,0.00,Wunderground v.1.15,2013-05-26 04:19:00,
2013-05-25 22:23:00,52.9,27.3,22.59,ENE,57,2.0,2.0,37,0.00,,,0.00,Wunderground v.1.15,2013-05-26 04:23:00,
2013-05-25 22:24:00,52.8,27.9,22.59,NE,56,1.0,21.0,38,0.00,,,0.00,Wunderground v.1.15,2013-05-26 04:24:00,
2013-05-25 22:26:00,52.5,28.2,22.59,North,354,1.0,21.0,39,0.00,,,0.00,Wunderground v.1.15,2013-05-26 04:26:00,
2013-05-25 22:28:00,52.3,28.1,22.59,NNW,343,2.0,21.0,39,0.00,,,0.00,Wunderground v.1.15,2013-05-26 04:28:00,
2013-05-25 22:30:00,52.1,27.9,22.59,NNW,342,1.0,21.0,39,0.00,,,0.00,Wunderground v.1.15,2013-05-26 04:30:00,
2013-05-25 22:37:00,51.6,26.8,22.59,NNW,329,1.0,21.0,38,0.00,,,0.00,Wunderground v.1.15,2013-05-26 04:37:00,
2013-05-25 22:39:00,51.5,27.3,22.59,NNW,329,1.0,21.0,39,0.00,,,0.00,Wunderground v.1.15,2013-05-26 04:39:00,
2013-05-25 22:43:00,51.4,27.2,22.58,WSW,258,1.0,1.0,39,0.00,,,0.00,Wunderground v.1.15,2013-05-26 04:43:00,
2013-05-25 22:48:00,50.8,27.9,22.59,SE,134,1.0,21.0,41,0.00,,,0.00,Wunderground v.1.15,2013-05-26 04:48:00,
2013-05-25 22:50:00,50.6,27.1,22.59,SE,134,1.0,21.0,40,0.00,,,0.00,Wunderground v.1.15,2013-05-26 04:50:00,
2013-05-25 22:54:00,50.4,27.0,22.58,NNW,341,1.0,21.0,40,0.00,,,0.00,Wunderground v.1.15,2013-05-26 04:54:00,
2013-05-25 22:56:00,50.4,27.0,22.58,SSW,201,1.0,21.0,40,0.00,,,0.00,Wunderground v.1.15,2013-05-26 04:56:00,
2013-05-25 23:03:00,49.8,27.6,22.58,North,354,2.0,2.0,42,0.00,,,0.00,Wunderground v.1.15,2013-05-26 05:03:00,
2013-05-25 23:05:00,49.7,28.1,22.59,WSW,246,1.0,21.0,43,0.00,,,0.00,Wunderground v.1.15,2013-05-26 05:05:00,
2013-05-25 23:10:00,49.3,27.7,22.59,NNW,330,1.0,21.0,43,0.00,,,0.00,Wunderground v.1.15,2013-05-26 05:10:00,
2013-05-25 23:12:00,49.2,27.1,22.59,NNW,330,1.0,1.0,42,0.00,,,0.00,Wunderground v.1.15,2013-05-26 05:12:00,
2013-05-25 23:14:00,49.1,26.4,22.58,NNW,330,1.0,21.0,41,0.00,,,0.00,Wunderground v.1.15,2013-05-26 05:14:00,
2013-05-25 23:16:00,49.2,25.9,22.58,WSW,249,1.0,21.0,40,0.00,,,0.00,Wunderground v.1.15,2013-05-26 05:16:00,
2013-05-25 23:18:00,49.3,26.6,22.58,WSW,249,1.0,21.0,41,0.00,,,0.00,Wunderground v.1.15,2013-05-26 05:18:00,
2013-05-25 23:21:00,49.2,27.1,22.58,WSW,249,1.0,21.0,42,0.00,,,0.00,Wunderground v.1.15,2013-05-26 05:21:00,
2013-05-25 23:27:00,48.9,26.8,22.58,WSW,257,1.0,21.0,42,0.00,,,0.00,Wunderground v.1.15,2013-05-26 05:27:00,
2013-05-25 23:29:00,48.9,25.6,22.58,West,260,1.0,21.0,40,0.00,,,0.00,Wunderground v.1.15,2013-05-26 05:29:00,
2013-05-25 23:31:00,48.9,25.6,22.58,West,270,1.0,21.0,40,0.00,,,0.00,Wunderground v.1.15,2013-05-26 05:31:00,
2013-05-25 23:32:00,48.9,26.2,22.58,West,270,1.0,1.0,41,0.00,,,0.00,Wunderground v.1.15,2013-05-26 05:32:00,
2013-05-25 23:36:00,49.0,25.7,22.58,West,270,1.0,21.0,40,0.00,,,0.00,Wunderground v.1.15,2013-05-26 05:36:00,
2013-05-25 23:38:00,49.0,24.5,22.58,West,270,0.0,21.0,38,0.00,,,0.00,Wunderground v.1.15,2013-05-26 05:38:00,
2013-05-25 23:44:00,48.4,26.3,22.58,NW,309,0.0,21.0,42,0.00,,,0.00,Wunderground v.1.15,2013-05-26 05:44:00,
2013-05-25 23:47:00,48.2,25.0,22.58,NW,311,1.0,21.0,40,0.00,,,0.00,Wunderground v.1.15,2013-05-26 05:47:00,
2013-05-25 23:49:00,48.1,24.3,22.58,NNE,19,1.0,21.0,39,0.00,,,0.00,Wunderground v.1.15,2013-05-26 05:49:00,
2013-05-25 23:53:00,48.3,23.8,22.58,North,358,1.0,21.0,38,0.00,,,0.00,Wunderground v.1.15,2013-05-26 05:53:00,
2013-05-25 23:55:00,48.3,23.8,22.58,North,357,1.0,21.0,38,0.00,,,0.00,Wunderground v.1.15,2013-05-26 05:55:00,
2013-05-25 23:58:00,48.5,24.6,22.58,North,357,1.0,21.0,39,0.00,,,0.00,Wunderground v.1.15,2013-05-26 05:58:00,